Temperature
9 7 6 7 7 8 8 8 8 8 9 8 7 7 8 8 8 7 8 8 8 9 9 9 9 9 8 8 8 8 8 8 7 7 7 7 7 7 7 7 7 7 7 7
7 7 8 8 8 8 8 8 7 8 8 8 7 7 7 7 7 8 8 8 8 8 8 8 8 8 8 8 8 8 7 7 7 7 7 7 7 7 7 7 7 7 7 7
7 7 8 8 8 8 7 7 7 7 7 7 6 6 6 7 7 8 8 8 8 8 8 8 8 8 8 8 7 7 7 7 7 7 6 6 6 6 6 6 6 6 6 6
7 7 8 8 8 8 7 8 7 7 6 5 6 5 6 6 6 6 7 7 7 8 8 8 8 7 7 7 7 7 7 7 7 6 6 6 6 6 6 6 6 6 6 6
7 7 7 7 8 8 7 7 7 6 5 5 5 5 6 6 6 6 6 7 7 7 7 7 7 7 7 7 7 6 6 6 6 6 6 5 5 6 5 5 5 5 5 5
6 7 7 7 7 7 7 6 6 4 4 5 5 5 5 5 6 7 6 7 7 7 7 7 7 7 7 7 6 6 6 6 6 5 5 5 5 5 5 5 5 4 4 4
6 6 7 7 7 7 6 5 5 5 4 5 5 5 5 6 6 7 6 7 7 7 7 6 6 6 6 6 6 6 5 5 5 5 5 5 5 5 5 4 4 4 4 4
5 5 6 6 6 6 5 5 5 5 4 4 4 4 6 6 6 7 7 7 7 6 6 6 6 6 6 6 6 5 5 5 5 5 4 4 4 4 4 4 4 3 3 3
5 5 6 6 6 6 5 4 5 4 3 4 4 4 5 6 6 6 6 6 6 6 6 6 6 6 6 5 5 5 5 5 4 4 4 4 4 4 4 4 3 3 3 3
5 4 5 5 6 6 6 4 3 3 4 4 4 4 5 6 5 5 4 5 5 6 6 6 6 5 5 5 5 5 4 4 4 4 3 3 3 3 3 3 3 3 3 3
5 4 4 4 5 5 5 4 4 3 3 4 4 5 6 5 5 4 4 5 5 5 5 5 5 5 5 5 4 4 4 4 4 3 3 3 3 3 3 3 3 3 3 3
4 3 3 3 4 5 5 4 3 3 3 2 3 4 6 5 5 4 4 5 5 5 5 5 5 5 4 4 4 4 4 4 3 3 3 2 2 2 2 3 2 2 2 2
3 3 3 4 4 4 4 4 3 2 2 2 2 4 5 4 4 5 4 5 5 5 5 5 5 4 4 4 4 4 3 3 3 3 2 2 2 2 2 2 2 2 2 2
4 2 3 4 4 3 3 3 3 2 2 2 3 4 5 5 4 4 4 4 4 4 4 4 4 4 4 4 3 3 3 3 3 2 2 2 2 2 2 2 2 2 2 1
3 2 2 2 3 3 3 3 3 2 2 3 3 3 4 4 4 4 4 4 3 4 4 4 4 3 3 3 3 3 3 2 2 2 2 2 2 1 1 1 1 1 1 1
2 2 2 2 2 2 3 3 3 3 3 3 3 3 4 4 4 3 3 3 3 3 3 3 3 3 3 3 3 3 2 2 2 2 1 1 1 1 1 1 1 1 1 1
1 1 1 2 2 2 2 3 2 2 2 2 3 4 3 3 3 3 3 3 3 3 3 3 3 3 3 3 3 2 2 2 1 1 1 1 1 1 1 1 1 1 1 1
1 1 0 1 1 2 4 3 3 3 3 2 2 2 3 3 3 4 4 3 3 3 3 3 3 3 3 3 2 2 2 1 1 1 1 1 1 1 0 0 0 0 0 0
1 1 0 0 1 2 3 3 2 2 2 2 2 2 2 3 2 3 4 3 3 3 3 3 3 3 3 2 2 2 1 1 1 1 1 1 0 0 0 0 0 -0 -0 -0
-0 0 0 0 1 2 4 3 3 3 2 2 2 2 2 1 1 1 3 3 3 3 3 2 2 2 2 2 2 1 1 1 1 0 0 0 0 0 0 -0 -0 -1 -1 -1
-0 -0 0 -0 1 1 2 2 3 2 3 3 3 2 2 1 2 3 3 2 2 2 2 2 2 2 2 2 1 1 1 1 0 0 0 0 -0 -0 -0 -1 -1 -1 -1 -1
-0 -1 -1 -1 0 2 2 1 1 2 3 3 3 3 2 2 2 2 2 2 2 2 2 2 2 2 2 1 1 1 1 0 0 -0 -0 -0 -0 -1 -1 -1 -1 -1 -1 -2
-1 0 -0 0 2 2 2 3 3 3 3 3 3 3 3 2 2 2 2 2 2 1 1 1 1 1 1 1 1 0 0 0 -0 -0 -1 -1 -1 -1 -1 -1 -1 -2 -2 -2
-1 -1 -1 -1 0 1 2 3 3 3 3 3 3 3 2 2 2 2 2 1 1 1 1 1 1 1 1 1 0 0 -0 -0 -0 -1 -1 -1 -1 -1 -1 -1 -2 -2 -2 -2
-0 -1 -1 -1 -0 1 2 3 3 3 3 3 3 2 2 2 2 1 1 1 1 1 1 1 1 1 1 0 0 -0 -0 -1 -1 -1 -1 -1 -1 -1 -1 -2 -2 -2 -2 -2
-1 -1 -0 1 1 1 2 4 3 3 3 2 2 2 2 1 1 1 1 1 0 0 0 0 0 0 0 0 -0 -0 -0 -1 -1 -1 -1 -1 -1 -2 -2 -2 -2 -2 -2 -2
Wind_Speed
1 3 4 7 7 4 4 4 6 6 3 3 7 11 13 9 6 7 7 6 6 7 6 4 4 4 4 3 4 3 3 2 2 2 1 1 1 1 1 2 2 2 2 1
3 4 7 4 3 3 3 4 6 6 3 3 6 11 11 8 7 7 8 7 7 5 4 3 4 4 4 5 4 4 4 3 3 3 3 2 1 1 1 2 2 2 2 2
5 5 3 3 3 3 5 6 5 5 5 3 3 8 6 5 4 4 5 5 5 6 6 5 4 4 4 5 5 4 4 4 3 3 1 1 1 1 0 1 1 2 2 2
3 4 2 3 4 4 6 5 5 3 2 4 1 5 7 5 5 5 5 5 5 5 5 5 4 4 5 6 5 5 4 4 3 3 3 3 2 2 2 2 2 2 2 3
3 2 2 4 5 4 5 2 3 3 2 3 3 4 8 3 5 7 6 6 6 5 5 5 5 5 5 5 5 4 4 3 3 3 4 4 3 2 1 1 2 2 2 2
3 2 2 3 2 3 1 2 2 2 2 4 5 6 8 5 7 6 6 6 6 6 5 5 4 4 3 3 3 4 4 3 3 3 4 4 4 3 2 2 2 2 2 2
3 3 2 1 1 1 2 3 3 3 2 6 3 5 9 8 7 7 6 6 6 5 5 4 4 4 3 3 3 4 4 4 3 3 3 4 4 4 5 4 3 3 2 2
2 5 3 2 4 4 3 5 5 4 5 5 2 6 8 6 5 4 4 4 4 4 4 5 5 5 5 5 4 4 5 4 3 3 3 3 3 3 3 4 3 3 3 3
4 4 2 2 1 5 4 3 4 3 2 4 6 6 8 3 3 2 2 1 3 4 4 5 4 5 5 5 5 5 5 5 4 4 3 3 3 3 3 3 3 3 3 2
5 3 3 2 1 0 4 5 4 3 3 5 6 6 5 5 6 4 3 4 4 4 3 4 4 5 5 5 5 4 5 5 5 4 4 3 3 3 3 2 3 2 3 2
3 4 2 1 5 6 4 3 3 3 4 4 4 7 5 6 6 5 5 5 4 4 4 4 4 4 4 4 4 4 4 4 4 4 4 3 3 3 3 3 3 3 3 3
3 3 3 5 4 3 5 6 6 4 5 5 4 8 5 4 4 3 4 5 4 5 4 4 3 3 3 3 4 4 4 4 4 4 4 4 3 3 3 3 3 3 3 3
4 3 1 3 3 1 3 4 5 4 3 5 5 8 3 3 4 3 4 5 5 5 4 3 3 3 4 4 4 4 4 4 4 3 4 3 3 3 4 4 3 3 3 3
3 4 6 8 6 4 5 6 6 5 5 6 10 12 9 7 7 7 6 7 7 6 4 4 4 4 4 4 4 4 4 4 3 4 4 4 5 5 5 4 3 3 3 3
3 5 6 8 7 5 8 10 10 11 11 10 11 12 14 10 9 8 7 7 7 6 5 5 5 5 4 4 4 4 4 4 4 4 5 5 5 4 4 3 3 3 3 3
2 3 3 6 7 8 10 13 13 13 12 14 14 16 12 9 6 7 8 7 7 7 7 6 5 5 5 5 5 4 4 4 4 4 5 5 4 4 4 3 3 3 3 3
4 4 3 5 4 3 9 11 12 8 9 10 14 14 8 7 8 9 9 8 8 7 6 6 6 6 6 5 5 5 4 3 4 4 5 4 4 4 4 4 4 4 3 3
5 4 3 3 1 8 8 4 7 9 10 11 10 9 7 9 9 9 7 7 8 7 6 6 5 5 5 5 4 4 3 4 4 4 4 4 4 4 4 4 4 4 3 3
6 6 4 3 5 8 7 4 5 7 8 7 10 11 9 6 5 6 5 5 6 7 6 6 5 4 4 5 4 4 4 4 4 4 4 4 4 5 4 4 4 3 3 3
2 4 4 4 5 7 6 3 2 3 6 5 6 8 6 1 3 6 4 4 5 4 3 3 2 2 3 4 4 4 4 4 5 5 5 4 4 4 4 4 4 3 3 3
4 4 6 7 7 8 6 2 4 3 7 4 4 5 4 5 6 5 5 5 4 3 3 2 2 3 3 3 4 4 4 5 5 4 3 3 4 4 4 3 2 2 2 2
9 7 7 6 7 9 4 6 7 8 3 3 3 4 5 6 6 5 4 5 4 4 3 2 2 3 2 3 4 4 5 4 3 3 3 3 3 3 3 3 2 2 3 3
9 9 7 9 9 4 6 7 5 3 4 4 4 5 5 5 5 5 4 4 4 4 3 3 3 2 2 2 3 4 4 3 3 3 3 3 3 2 2 3 3 2 2 2
5 5 5 6 9 7 7 6 6 5 6 6 5 5 5 5 5 5 4 4 4 4 3 3 2 2 3 3 3 4 4 3 3 3 3 3 2 2 2 2 2 3 3 3
7 7 6 8 8 6 7 8 8 7 5 5 5 4 5 5 5 5 4 5 4 4 3 2 3 3 4 3 3 3 3 3 3 3 3 3 2 2 2 2 3 3 4 4
7 8 9 10 8 7 7 6 6 6 6 6 5 4 4 5 5 4 4 4 4 3 3 2 3 3 3 3 3 3 3 4 4 3 3 2 2 2 2 2 2 3 3 4
Wind_Direction
89 98 202 214 205 204 193 207 249 259 258 255 249 262 271 269 255 247 241 235 227 230 232 209 195 185 173 172 174 180 173 180 169 164 172 182 224 247 248 237 219 215 210 191
56 239 235 219 212 219 223 246 264 285 297 261 267 274 272 261 243 229 226 229 226 230 237 217 199 184 181 188 190 186 187 190 192 193 195 200 197 226 235 255 235 218 209 204
190 232 223 194 223 235 241 227 239 260 319 320 304 298 273 270 249 240 230 217 214 210 213 209 201 196 193 200 203 201 203 202 203 191 157 97 69 34 316 290 257 247 230 224
230 249 231 222 235 213 251 230 232 252 305 286 240 284 281 263 269 249 241 225 220 219 210 205 199 199 204 212 210 203 201 202 201 182 173 174 188 220 236 246 250 263 249 238
238 220 206 225 233 207 230 260 248 235 208 280 241 230 280 269 258 252 244 235 228 220 214 210 202 201 207 213 208 203 196 197 195 185 186 189 207 223 238 248 257 257 260 250
249 253 222 220 233 196 184 24 25 50 98 270 228 200 272 241 232 250 245 241 236 230 226 220 209 195 204 207 205 198 192 200 196 188 188 195 206 206 206 229 243 253 263 264
308 281 260 179 129 50 94 87 13 348 331 254 218 208 250 246 235 231 238 243 244 227 215 215 212 208 207 203 204 202 195 203 201 196 200 206 210 207 209 219 227 236 248 263
220 272 240 203 186 185 185 157 173 218 239 276 270 235 254 260 259 253 247 243 240 224 213 216 215 207 208 212 208 204 204 207 202 202 214 214 216 219 229 227 229 234 236 241
193 247 294 221 196 152 153 194 180 161 245 272 267 276 295 263 292 295 287 255 240 232 220 220 220 213 211 210 210 205 206 209 207 209 217 214 214 218 229 228 232 242 241 243
172 232 262 286 80 206 164 156 125 157 209 257 276 260 249 265 274 281 274 257 253 253 243 231 221 218 219 212 207 201 205 206 204 205 214 221 219 222 225 218 228 245 248 243
161 192 275 266 200 201 168 168 173 180 190 198 263 268 229 226 242 243 250 253 249 239 239 236 232 223 218 205 196 199 208 207 203 205 210 215 222 222 223 223 230 240 244 235
171 165 233 244 254 225 194 190 172 190 230 207 228 267 267 242 254 246 261 274 267 248 243 233 224 214 204 199 204 206 209 208 210 207 207 215 221 220 226 234 236 241 242 234
157 155 237 322 305 278 226 209 193 184 183 206 221 262 290 314 301 287 275 279 279 260 248 237 224 217 209 209 212 211 212 212 214 207 211 222 228 227 233 240 244 242 238 236
161 186 205 219 225 194 229 233 212 189 214 232 234 255 281 290 289 289 282 275 275 261 246 237 231 226 220 214 212 212 220 211 211 209 212 223 229 227 231 237 239 240 228 223
157 216 233 253 257 235 236 236 221 217 219 229 250 253 263 269 267 271 272 274 272 261 252 240 232 228 226 221 219 216 222 221 216 214 218 227 230 226 230 234 239 242 230 228
177 211 235 266 255 246 255 247 233 231 232 239 257 266 265 274 272 272 273 266 260 255 252 250 241 230 225 219 218 219 225 224 217 220 225 228 226 223 228 233 242 236 231 231
188 186 212 255 273 282 260 235 222 223 219 214 239 252 271 279 273 267 266 258 255 254 252 247 241 235 227 218 210 215 220 219 219 227 228 225 219 220 224 229 232 226 225 224
185 187 199 249 259 240 247 220 210 222 236 226 241 261 263 261 270 269 257 248 255 253 253 247 238 237 230 213 214 211 206 209 218 224 225 221 215 222 225 220 224 228 224 223
197 184 191 204 241 269 283 253 199 207 250 232 240 258 268 277 303 291 266 247 247 254 254 246 235 234 220 215 211 199 204 210 216 221 223 222 218 222 220 220 225 228 225 234
163 179 192 202 224 243 254 254 215 142 267 254 228 249 263 269 289 277 289 287 279 277 264 250 241 234 216 217 193 187 201 206 220 223 221 217 211 211 216 220 227 229 227 232
166 191 207 215 235 260 254 222 116 172 253 257 223 236 226 217 233 262 294 298 288 285 279 253 228 226 223 209 181 192 205 221 226 218 213 214 211 212 212 213 213 217 223 227
183 186 200 192 223 252 208 148 187 225 250 241 236 230 232 239 255 267 284 295 302 299 289 264 238 239 231 195 181 199 226 233 216 202 209 220 217 214 206 197 209 211 207 215
201 197 195 201 219 237 186 201 226 222 242 250 242 244 236 244 258 270 280 287 287 283 272 259 227 232 244 212 193 210 235 225 204 201 215 224 223 220 207 201 207 212 203 208
233 197 199 236 251 250 238 241 252 246 244 252 250 247 235 242 250 262 276 286 290 284 270 259 218 219 245 241 222 224 228 209 196 207 219 221 214 221 210 203 206 210 213 216
215 186 208 241 258 274 253 236 241 249 250 256 262 246 232 232 249 256 267 274 277 281 273 243 220 227 244 249 245 237 218 197 205 213 217 216 213 213 207 215 224 225 228 221
202 192 201 233 227 216 243 236 227 234 245 243 242 255 247 228 243 256 265 270 272 271 268 259 245 241 252 251 250 247 222 200 201 212 215 212 211 207 206 216 266 268 248 246
Height
1492 1497 1499 1497 1496 1496 1497 1500 1499 1495 1492 1493 1492 1488 1482 1480 1480 1479 1478 1477 1477 1478 1479 1480 1481 1481 1482 1482 1483 1483 1483 1484 1484 1484 1484 1484 1484 1484 1484 1484 1484 1484 1484 1484
1497 1498 1493 1493 1494 1495 1496 1498 1497 1494 1491 1492 1491 1486 1479 1477 1475 1474 1473 1473 1473 1474 1475 1476 1477 1478 1478 1478 1479 1479 1480 1480 1480 1480 1481 1481 1481 1480 1480 1481 1481 1481 1480 1480
1495 1493 1490 1492 1493 1495 1495 1497 1496 1495 1493 1491 1492 1486 1479 1473 1471 1471 1470 1470 1470 1471 1471 1472 1473 1474 1474 1475 1475 1475 1476 1476 1477 1477 1478 1477 1477 1477 1477 1476 1476 1477 1477 1476
1493 1490 1490 1491 1492 1492 1494 1491 1492 1493 1498 1500 1496 1496 1478 1473 1470 1468 1467 1467 1467 1468 1468 1469 1469 1470 1471 1471 1472 1472 1472 1473 1473 1474 1474 1473 1473 1472 1472 1473 1473 1473 1473 1472
1491 1489 1489 1490 1489 1489 1490 1489 1491 1493 1497 1500 1497 1498 1481 1473 1470 1465 1463 1462 1463 1464 1465 1465 1466 1467 1467 1468 1468 1468 1469 1469 1469 1470 1470 1470 1470 1469 1470 1469 1469 1469 1469 1468
1490 1488 1488 1487 1487 1487 1488 1491 1493 1496 1500 1501 1493 1496 1482 1473 1465 1461 1459 1459 1459 1460 1461 1462 1463 1464 1464 1465 1465 1465 1465 1465 1466 1466 1466 1466 1466 1466 1466 1465 1465 1465 1465 1464
1491 1488 1486 1486 1487 1488 1490 1496 1502 1503 1505 1498 1489 1489 1477 1461 1458 1457 1456 1456 1456 1457 1458 1458 1459 1460 1460 1461 1461 1461 1462 1461 1462 1462 1462 1462 1462 1462 1462 1462 1461 1461 1461 1460
1494 1493 1486 1484 1485 1488 1489 1493 1501 1502 1503 1496 1489 1485 1468 1458 1455 1454 1454 1454 1454 1454 1455 1455 1455 1456 1457 1457 1458 1458 1458 1458 1458 1458 1458 1459 1459 1458 1458 1458 1458 1458 1457 1457
1492 1491 1485 1483 1483 1484 1488 1492 1492 1499 1502 1500 1489 1480 1465 1455 1455 1453 1453 1452 1451 1451 1452 1452 1452 1453 1453 1453 1454 1454 1454 1454 1454 1454 1455 1455 1455 1455 1454 1454 1454 1454 1454 1453
1486 1491 1486 1484 1483 1483 1485 1488 1495 1498 1498 1495 1485 1480 1469 1457 1455 1453 1452 1451 1450 1450 1449 1449 1449 1449 1449 1450 1450 1450 1450 1450 1450 1451 1451 1451 1451 1451 1451 1451 1451 1450 1450 1450
1484 1490 1489 1486 1484 1484 1486 1488 1489 1494 1495 1494 1490 1474 1456 1454 1452 1452 1450 1449 1448 1447 1447 1446 1446 1446 1446 1446 1446 1447 1447 1447 1447 1447 1447 1448 1447 1447 1447 1447 1447 1447 1447 1446
1483 1488 1490 1486 1481 1480 1480 1482 1486 1491 1491 1492 1489 1473 1451 1450 1449 1448 1447 1447 1446 1445 1445 1444 1443 1443 1443 1443 1443 1443 1443 1443 1443 1444 1444 1444 1444 1444 1444 1444 1444 1444 1443 1443
1481 1487 1489 1485 1486 1483 1481 1480 1482 1485 1489 1490 1487 1469 1450 1449 1447 1447 1446 1445 1444 1443 1442 1441 1440 1440 1440 1440 1440 1440 1440 1440 1440 1440 1440 1440 1440 1440 1440 1440 1440 1440 1440 1440
1478 1483 1484 1479 1475 1478 1479 1478 1478 1482 1484 1482 1474 1461 1451 1449 1447 1446 1445 1443 1442 1440 1438 1438 1437 1437 1437 1437 1437 1437 1437 1437 1436 1436 1436 1436 1436 1436 1436 1436 1437 1436 1436 1436
1476 1480 1479 1476 1473 1474 1473 1472 1473 1474 1472 1472 1462 1458 1448 1446 1445 1443 1442 1440 1438 1436 1435 1434 1434 1433 1433 1433 1433 1433 1433 1433 1433 1432 1432 1432 1433 1433 1433 1433 1433 1433 1433 1433
1474 1477 1477 1475 1471 1471 1469 1464 1464 1464 1463 1461 1458 1452 1442 1442 1441 1440 1438 1436 1434 1432 1432 1431 1431 1430 1430 1430 1429 1429 1429 1429 1429 1428 1428 1429 1429 1429 1429 1429 1429 1429 1429 1429
1473 1475 1477 1473 1472 1469 1464 1454 1455 1455 1453 1453 1451 1443 1439 1439 1437 1435 1433 1432 1430 1429 1428 1427 1426 1426 1426 1426 1426 1426 1426 1425 1425 1425 1425 1425 1425 1425 1425 1425 1425 1425 1425 1425
1470 1473 1476 1474 1473 1467 1448 1444 1444 1446 1444 1443 1440 1437 1436 1435 1433 1431 1429 1428 1426 1425 1424 1423 1422 1422 1422 1422 1423 1422 1422 1422 1422 1421 1421 1421 1421 1421 1421 1422 1421 1421 1421 1421
1464 1468 1472 1473 1469 1457 1446 1442 1442 1443 1440 1435 1435 1433 1432 1431 1430 1427 1425 1424 1423 1422 1420 1419 1419 1418 1418 1419 1419 1419 1419 1419 1418 1418 1418 1418 1418 1418 1418 1417 1417 1417 1417 1417
1462 1464 1469 1469 1464 1455 1441 1437 1435 1439 1439 1430 1430 1430 1430 1430 1432 1426 1423 1421 1419 1418 1417 1416 1415 1415 1415 1415 1415 1415 1415 1415 1414 1414 1414 1414 1414 1414 1414 1414 1414 1414 1414 1414
1463 1463 1464 1464 1461 1448 1437 1435 1436 1443 1435 1427 1426 1427 1427 1427 1426 1423 1421 1419 1417 1415 1414 1413 1412 1411 1412 1412 1412 1411 1411 1411 1411 1411 1411 1411 1411 1411 1410 1411 1411 1411 1411 1411
1455 1458 1459 1459 1457 1445 1432 1433 1435 1431 1426 1425 1424 1424 1423 1422 1421 1419 1418 1416 1414 1412 1411 1410 1409 1408 1409 1408 1408 1408 1408 1408 1409 1408 1408 1408 1408 1407 1407 1407 1407 1407 1408 1407
1445 1443 1443 1442 1435 1427 1426 1425 1424 1424 1423 1422 1422 1421 1421 1419 1417 1416 1414 1413 1411 1410 1408 1407 1407 1406 1406 1406 1405 1405 1405 1406 1406 1405 1405 1405 1404 1405 1405 1404 1404 1404 1404 1404
1436 1434 1436 1435 1426 1423 1422 1421 1421 1421 1420 1419 1419 1418 1417 1415 1414 1412 1411 1409 1408 1407 1405 1404 1404 1403 1403 1403 1403 1403 1403 1403 1403 1402 1402 1402 1402 1402 1402 1401 1401 1401 1401 1401
1426 1429 1430 1427 1421 1419 1416 1416 1416 1416 1415 1415 1415 1414 1413 1412 1411 1409 1408 1406 1405 1404 1403 1402 1401 1401 1401 1401 1400 1400 1401 1401 1400 1400 1400 1399 1399 1399 1399 1399 1399 1399 1399 1399
1417 1419 1421 1415 1411 1413 1410 1410 1411 1411 1411 1410 1410 1410 1410 1409 1408 1407 1405 1404 1403 1401 1400 1399 1399 1398 1398 1398 1398 1398 1398 1398 1397 1397 1397 1397 1397 1397 1396 1396 1396 1396 1396 1396